Port Hope, MI

1:11 AM EDT on September 28, 2016 (GMT -0400)
Port Hope

Weather History for KP58 - March, 2013

Change the Weather History Date:

Saturday, March 23, 2013

  Actual Average Record
Temperature  
Mean Temperature 32 °F -  
Max Temperature 37 °F 39 °F 51 °F (2012)
Min Temperature 28 °F 28 °F 15 °F (2014)
Degree Days  
Heating Degree Days 32    
Moisture  
Dew Point 24 °F    
Average Humidity 72    
Maximum Humidity 82    
Minimum Humidity 59    
Precipitation  
Precipitation 0.00 in - - ()
Sea Level Pressure  
Sea Level Pressure 30.07 in    
Wind  
Wind Speed 6 mph (NW)    
Max Wind Speed 10 mph    
Max Gust Speed -    
Averages and records for this station are not official NWS values.
T = Trace of Precipitation, MM = Missing Value Source: NWS Daily Summary

Daily Weather History Graph

Daily Weather History Graph

Search for Another Location

Airport or City:

Trip Planner

Search our weather history database for the weather conditions in past years. The results will help you decide how hot, cold, wet, or windy it might be!

Date:

Astronomy

Mar. 23, 2013 Rise Set
Actual Time 7:28 AM EDT 7:47 PM EDT
Civil Twilight 6:59 AM EDT 8:16 PM EDT
Nautical Twilight 6:25 AM EDT 8:50 PM EDT
Astronomical Twilight 5:50 AM EDT 9:25 PM EDT
Moon 4:06 PM EDT (3/23) 5:11 AM EDT (3/23)
Length of Visible Light 13h 16m
Length of Day
12h 19m
Waxing Gibbous, 85% of the Moon is Illuminated
Mar 23
Waxing Gibbous
Mar 27
Full
Apr 3
Last Quarter
Apr 10
New
Apr 18
First Quarter

Hourly Weather History & Observations

Time (EDT) Temp. Windchill Dew Point Humidity Pressure Visibility Wind Dir Wind Speed Gust Speed Precip Events Conditions
12:51 AM 32.0 °F 26.4 °F 21.9 °F 66% 30.01 in - NW 5.8 mph - N/A   Unknown
1:51 AM 32.0 °F 24.8 °F 23.0 °F 69% 30.02 in - WNW 8.1 mph - N/A   Unknown
2:51 AM 30.0 °F 24.1 °F 21.9 °F 72% 30.01 in - NW 5.8 mph - N/A   Unknown
3:51 AM 30.9 °F 23.5 °F 21.9 °F 69% 30.03 in - NW 8.1 mph - N/A   Unknown
4:51 AM 30.0 °F 24.1 °F 21.9 °F 72% 30.02 in - NW 5.8 mph - N/A   Unknown
5:51 AM 30.0 °F 22.4 °F 21.9 °F 72% 30.03 in - NW 8.1 mph - N/A   Unknown
6:51 AM 28.9 °F 21.9 °F 21.9 °F 75% 30.04 in - WNW 6.9 mph - N/A   Unknown
7:51 AM 28.9 °F 21.9 °F 23.0 °F 78% 30.06 in - NW 6.9 mph - N/A   Unknown
8:51 AM 28.9 °F 21.9 °F 23.0 °F 78% 30.06 in - WNW 6.9 mph - N/A   Unknown
9:51 AM 30.9 °F 23.5 °F 24.1 °F 76% 30.08 in - WNW 8.1 mph - N/A   Unknown
10:51 AM 32.0 °F 24.8 °F 25.0 °F 75% 30.09 in - WNW 8.1 mph - N/A   Unknown
11:51 AM 32.0 °F 24.8 °F 25.0 °F 75% 30.09 in - NW 8.1 mph - N/A   Unknown
12:51 PM 33.1 °F 24.9 °F 25.0 °F 72% 30.09 in - NW 10.4 mph - N/A   Unknown
1:51 PM 32.0 °F 26.4 °F 25.0 °F 75% 30.10 in - NW 5.8 mph - N/A   Unknown
2:51 PM 34.0 °F 31.0 °F 25.0 °F 70% 30.09 in - NNW 3.5 mph - N/A   Unknown
3:51 PM 36.0 °F 32.1 °F 27.0 °F 70% 30.08 in - NW 4.6 mph - N/A   Unknown
4:51 PM 37.0 °F - 26.1 °F 65% 30.07 in - Calm Calm - N/A   Unknown
5:51 PM 37.0 °F - 26.1 °F 65% 30.06 in - Calm Calm - N/A   Unknown
6:51 PM 36.0 °F 33.3 °F 23.0 °F 59% 30.10 in - Variable 3.5 mph - N/A   Unknown
7:51 PM 35.1 °F - 24.1 °F 64% 30.09 in - Calm Calm - N/A   Unknown
8:51 PM 33.1 °F - 27.0 °F 78% 30.10 in - Calm Calm - N/A   Unknown
9:51 PM 32.0 °F - 26.1 °F 79% 30.11 in - Calm Calm - N/A   Unknown
10:51 PM 32.0 °F 28.7 °F 25.0 °F 75% 30.10 in - SW 3.5 mph - N/A   Unknown
11:51 PM 30.9 °F - 26.1 °F 82% 30.09 in - Calm Calm - N/A   Unknown